[[{"header":{"parameterUnit":"m.s-1","parameterCategory":1,"la1":30.2991,"la2":30.254,"lo1":-89.0895,"lo2":-89.0444,"dy":0.0017,"dx":0.0017,"nx":28,"ny":28,"refTime":"2024-08-23T03:00:00:Z","depth":0,"parameterNumber":2,"parameterNumberName":"U-component_of_WINDS"},"data":[0,0,0,0,0,0,0,0,0,0,0,0,0,0,0,0,0,0,0,0,0,0,0,0,0,0,0,0,0,0,0,0,0,0,0,0,0,0,0,0,0,0,0,0,0,0,0,0,0,0,0,0,0,0,0,0,0,0,-4.5401,-4.5401,0,-4.5426,-4.5426,-4.5426,-4.5279,-4.5274,-4.527,-4.5266,-4.5292,-4.5297,-4.5301,0,0,0,0,0,0,0,0,0,0,0,0,0,-4.5226,-4.523,-4.5401,-4.5401,-4.5402,-4.5426,-4.5426,-4.5426,-4.5279,-4.5274,-4.5269,-4.5264,-4.5291,-4.5296,-4.5302,0,0,0,0,0,0,0,0,0,0,0,0,0,-4.5282,-4.5231,-4.5401,-4.5331,-4.5325,-4.5426,-4.5426,-4.5426,-4.528,-4.5274,-4.5268,-4.5262,-4.5289,-4.5296,-4.5303,-4.5471,0,0,-4.5324,-4.5327,0,0,0,0,0,0,0,0,-4.5279,-4.5288,-4.5341,-4.5336,-4.533,-4.5343,-4.5374,-4.5442,-4.5282,-4.5298,-4.5266,-4.5259,-4.5314,-4.5319,-4.5337,-4.5473,-4.5474,-4.5324,-4.5329,-4.5332,-4.5334,0,0,0,0,0,0,0,-4.5275,-4.5286,-4.5411,-4.5342,-4.5335,-4.5298,-4.5299,-4.5386,-4.5341,-4.5296,-4.5285,-4.529,-4.531,-4.5331,-4.5337,-4.5474,-4.5324,-4.533,-4.5335,-4.5337,-4.5748,-4.5754,0,0,0,0,0,0,-4.5281,-4.5284,-4.541,-4.5411,-4.5288,-4.5307,-4.5308,-4.5345,-4.534,-4.5333,-4.5295,-4.5283,-4.5322,-4.5329,-4.5337,-4.5533,-4.5332,-4.5338,-4.5342,-4.5741,-4.5749,-4.5756,0,0,0,0,0,0,-4.5277,-4.5293,-4.5409,-4.5345,-4.5357,-4.5316,-4.5359,-4.5349,-4.5369,-4.5339,-4.533,-4.5325,-4.5317,-4.5327,-4.5439,-4.5532,-4.5341,-4.5347,-4.5733,-4.5743,-4.5753,-4.5928,0,0,0,0,0,0,-4.5273,-4.5293,-4.5357,-4.5347,-4.5361,-4.5511,-4.5365,-4.5354,-4.5382,-4.5366,-4.5365,-4.5359,-4.5313,-4.5429,-4.5446,-4.5538,-4.5353,-4.5724,-4.5738,-4.575,-4.5913,-4.5943,-4.5968,0,0,0,0,0,-4.5267,-4.5406,-4.5361,-4.5377,-4.544,-4.5516,-4.5524,-4.5469,-4.539,-4.5453,-4.5434,-4.5359,-4.5519,-4.5442,-4.5459,-4.5555,-4.5718,-4.5734,-4.5749,-4.5901,-4.5937,-4.5967,0,0,0,0,0,0,-4.5428,-4.5403,-4.5353,-4.5493,-4.5508,-4.5491,-4.557,-4.5508,-4.5546,-4.553,-4.546,-4.5461,-4.5584,-4.558,-4.5495,-4.5717,-4.5605,-4.5624,-4.5715,-4.5749,-4.5775,-4.5773,-4.5359,0,0,0,0,0,-4.5479,-4.5543,-4.5518,-4.5644,-4.5654,-4.5611,-4.5643,-4.5599,-4.5611,-4.5617,-4.5605,-4.5621,-4.5674,-4.5711,-4.5759,-4.5912,-4.5909,-4.5987,-4.6014,-4.6036,-4.6054,-4.6133,-4.6167,-4.5806,-4.5806,-4.5806,0,0,-4.5586,-4.5581,-4.5626,-4.5676,-4.5682,-4.575,-4.5618,-4.5695,-4.5744,-4.5629,-4.5733,-4.5725,-4.5738,-4.587,-4.5928,-4.5871,-4.6152,-4.6055,-4.6074,-4.6079,-4.6152,-4.6186,-4.6217,-4.5817,-4.5815,-4.5813,0,0,-4.5816,-4.5819,-4.5923,-4.5932,-4.5943,-4.5914,-4.5939,-4.5932,-4.5922,-4.6025,-4.5939,-4.5997,-4.6092,-4.6103,-4.6122,-4.6356,-4.6288,-4.6373,-4.6514,-4.6593,-4.6621,-4.6646,-4.6728,-4.6759,-4.6391,-4.6391,-4.6392,0,-4.5948,-4.6047,-4.5985,-4.6068,-4.6092,-4.599,-4.6094,-4.6106,-4.6133,-4.6152,-4.6087,-4.6202,-4.6204,-4.6337,-4.6394,-4.6413,-4.6439,-4.6373,-4.6622,-4.6646,-4.6668,-4.6746,-4.6778,-4.6401,-4.64,-4.6399,-4.6398,0,-4.6208,-4.6277,-4.636,-4.6388,-4.6421,-4.6515,-4.6467,-4.6508,-4.6461,-4.6438,-4.6544,-4.6542,-4.6587,-4.6616,-4.6571,-4.6743,-4.6707,-4.6634,-4.6519,-4.6714,-4.6786,-4.6815,-4.6416,-4.6412,-4.6409,-4.6407,0,0,-4.6539,-4.6531,-4.6562,-4.6573,-4.6577,-4.663,-4.6718,-4.6762,-4.6798,-4.682,-4.6892,-4.6974,-4.6905,-4.6927,-4.6882,-4.6951,-4.7135,-4.6869,-4.6868,-4.6918,-4.7323,-4.7378,-4.7413,-4.709,-4.7096,-4.71,-4.7322,0,-4.6763,-4.6913,-4.686,-4.7013,-4.7076,-4.698,-4.7057,-4.7068,-4.7049,-4.71,-4.7078,-4.7137,-4.7043,-4.7055,-4.7119,-4.71,-4.7216,-4.7083,-4.7156,-4.716,-4.7155,-4.7451,-4.7509,-4.7719,-4.735,-4.7354,-4.7358,0,-4.7044,-4.7076,-4.7236,-4.7229,-4.7253,-4.7323,-4.7358,-4.7408,-4.7418,-4.7399,-4.7423,-4.7364,-4.7449,-4.7336,-4.7453,-4.7364,-4.7391,-4.7386,-4.7392,-4.7396,-4.727,-4.7462,-4.7784,-4.7815,-4.7402,-4.7398,-4.7395,0,-4.7268,-4.7352,-4.7458,-4.747,-4.7464,-4.7516,-4.7516,-4.752,-4.7549,-4.758,-4.7598,-4.7639,-4.7661,-4.7694,-4.7647,-4.7569,-4.7771,-4.7653,-4.7757,-4.7759,-4.7804,-4.7801,-4.8134,-4.7823,-4.7823,-4.7822,-4.7821,0,-4.7523,-4.7624,-4.7558,-4.7624,-4.7734,-4.7672,-4.7783,-4.7772,-4.7776,-4.7837,-4.7757,-4.7816,-4.7751,-4.7804,-4.7768,-4.787,-4.7881,-4.7868,-4.7857,-4.7875,-4.7876,-4.7891,-4.7875,-4.783,-4.7829,-4.7827,-4.7825,0,-4.7792,-4.7752,-4.7861,-4.7846,-4.7845,-4.7927,-4.7914,-4.7974,-4.7949,-4.8028,-4.8042,-4.8004,-4.8062,-4.8018,-4.8076,-4.8052,-4.8186,-4.8155,-4.8183,-4.8174,-4.8279,-4.827,-4.8632,-4.8676,-4.8339,-4.8342,-4.8345,0,-4.7957,-4.8032,-4.8026,-4.806,-4.8066,-4.8123,-4.8152,-4.8094,-4.8127,-4.8144,-4.8202,-4.8253,-4.8291,-4.8388,-4.8365,-4.8409,-4.8378,-4.8502,-4.8384,-4.8399,-4.8378,-4.8374,-4.8381,-4.8525,-4.8529,-4.8533,-4.8535,0,-4.8253,-4.8229,-4.8274,-4.8313,-4.8349,-4.8377,-4.8398,-4.8431,-4.8371,-4.8413,-4.8471,-4.8501,-4.8559,-4.8611,-4.8646,-4.8646,-4.8581,-4.8573,-4.8599,-4.8617,-4.8629,-4.8623,-4.8246,-4.8564,-4.8561,-4.8559,-4.8558,-4.8556,-4.8473,-4.8536,-4.854,-4.8593,-4.8603,-4.8624,-4.8679,-4.8661,-4.8708,-4.875,-4.8713,-4.8783,-4.879,-4.8831,-4.8838,-4.8892,-4.8841,-4.8879,-4.8889,-4.8899,-4.8913,-4.8622,-4.8898,-4.8898,-4.8897,-4.8896,-4.8895,0,-4.8764,-4.8762,-4.8811,-4.8843,-4.8884,-4.8819,-4.8839,-4.8878,-4.894,-4.8953,-4.8991,-4.9058,-4.9107,-4.9088,-4.9132,-4.9178,-4.915,-4.9192,-4.9187,-4.9188,-4.8957,-4.8929,-4.9214,-4.9214,-4.9214,-4.9214,-4.9214,-4.9214,-4.892,-4.9022,-4.8999,-4.9104,-4.9101,-4.9168,-4.9185,-4.9204,-4.9213,-4.9291,-4.9332,-4.9319,-4.9318,-4.9361,-4.9403,-4.9396,-4.9416,-4.9469,-4.9451,-4.9236,-4.9204,-4.9174,-4.9148,-4.9474,-4.9474,-4.9677,-4.9679,-4.968]},{"header":{"parameterUnit":"m.s-1","parameterCategory":1,"la1":30.2991,"la2":30.254,"lo1":-89.0895,"lo2":-89.0444,"dy":0.0017,"dx":0.0017,"nx":28,"ny":28,"refTime":"2024-08-23T03:00:00:Z","depth":0,"parameterNumber":3,"parameterNumberName":"V-component_of_WINDS"},"data":[0,0,0,0,0,0,0,0,0,0,0,0,0,0,0,0,0,0,0,0,0,0,0,0,0,0,0,0,0,0,0,0,0,0,0,0,0,0,0,0,0,0,0,0,0,0,0,0,0,0,0,0,0,0,0,0,0,0,-2.1636,-2.1636,0,-2.1697,-2.1697,-2.1698,-2.1726,-2.1726,-2.1726,-2.1726,-2.1786,-2.1787,-2.1789,0,0,0,0,0,0,0,0,0,0,0,0,0,-2.1539,-2.1541,-2.1635,-2.1636,-2.1637,-2.1696,-2.1697,-2.1698,-2.1726,-2.1726,-2.1726,-2.1726,-2.1785,-2.1787,-2.1789,0,0,0,0,0,0,0,0,0,0,0,0,0,-2.1589,-2.1542,-2.1635,-2.1658,-2.1661,-2.1696,-2.1697,-2.1698,-2.1726,-2.1726,-2.1726,-2.1726,-2.1785,-2.1787,-2.1789,-2.1805,0,0,-2.1797,-2.1798,0,0,0,0,0,0,0,0,-2.1586,-2.1592,-2.1654,-2.1657,-2.166,-2.1704,-2.1685,-2.1734,-2.1726,-2.1702,-2.1726,-2.1726,-2.1758,-2.1763,-2.1775,-2.1808,-2.1811,-2.1797,-2.1799,-2.18,-2.18,0,0,0,0,0,0,0,-2.1582,-2.159,-2.166,-2.1655,-2.1659,-2.1664,-2.1671,-2.1695,-2.1729,-2.1704,-2.1706,-2.1713,-2.176,-2.1772,-2.1776,-2.1812,-2.1797,-2.1799,-2.1801,-2.1802,-2.186,-2.186,0,0,0,0,0,0,-2.1576,-2.1587,-2.1658,-2.1661,-2.1622,-2.1666,-2.1674,-2.169,-2.1729,-2.1735,-2.1713,-2.1714,-2.1768,-2.1773,-2.1778,-2.1799,-2.18,-2.1802,-2.1803,-2.186,-2.186,-2.186,0,0,0,0,0,0,-2.1574,-2.1582,-2.1655,-2.1625,-2.1634,-2.1668,-2.1685,-2.1691,-2.1703,-2.1736,-2.1742,-2.1719,-2.1768,-2.1775,-2.1798,-2.1801,-2.1803,-2.1805,-2.186,-2.186,-2.186,-2.1841,0,0,0,0,0,0,-2.1571,-2.1581,-2.1588,-2.1625,-2.1636,-2.1675,-2.1686,-2.1692,-2.1708,-2.171,-2.1744,-2.1749,-2.1769,-2.1795,-2.1801,-2.1805,-2.1807,-2.186,-2.186,-2.186,-2.1841,-2.184,-2.1839,0,0,0,0,0,-2.1567,-2.158,-2.1589,-2.1597,-2.1646,-2.1676,-2.1682,-2.1705,-2.1708,-2.1715,-2.1736,-2.1748,-2.18,-2.1797,-2.1804,-2.1809,-2.186,-2.186,-2.186,-2.1842,-2.184,-2.1839,0,0,0,0,0,0,-2.1543,-2.1585,-2.1595,-2.1621,-2.1644,-2.168,-2.169,-2.1703,-2.1725,-2.1726,-2.1753,-2.176,-2.1781,-2.1797,-2.1793,-2.1825,-2.1831,-2.1832,-2.1814,-2.1813,-2.1812,-2.1808,-2.1809,0,0,0,0,0,-2.154,-2.1562,-2.1597,-2.1616,-2.1628,-2.1657,-2.167,-2.1686,-2.1711,-2.1721,-2.1744,-2.1767,-2.1788,-2.1802,-2.1823,-2.1843,-2.1851,-2.185,-2.1849,-2.1848,-2.1849,-2.186,-2.186,-2.1861,-2.1861,-2.1861,0,0,-2.1536,-2.1561,-2.1573,-2.1612,-2.1632,-2.1652,-2.1665,-2.1686,-2.1701,-2.1724,-2.1748,-2.1765,-2.1792,-2.1814,-2.1824,-2.1828,-2.185,-2.1848,-2.1847,-2.1849,-2.186,-2.186,-2.186,-2.1861,-2.1861,-2.1861,0,0,-2.1537,-2.1559,-2.1577,-2.1597,-2.1627,-2.1646,-2.165,-2.1684,-2.1697,-2.1721,-2.1739,-2.1756,-2.1792,-2.1811,-2.1825,-2.1832,-2.1844,-2.1838,-2.1833,-2.1843,-2.1843,-2.1843,-2.1845,-2.1845,-2.1839,-2.1839,-2.1839,0,-2.1527,-2.156,-2.1584,-2.1604,-2.162,-2.1642,-2.1659,-2.1677,-2.1712,-2.1722,-2.1726,-2.1771,-2.1791,-2.1817,-2.1819,-2.183,-2.1834,-2.1834,-2.1841,-2.1841,-2.1842,-2.1844,-2.1845,-2.1838,-2.1838,-2.1838,-2.1838,0,-2.1545,-2.1567,-2.1578,-2.1612,-2.1629,-2.1647,-2.1673,-2.1687,-2.1701,-2.1719,-2.1742,-2.1767,-2.1793,-2.18,-2.1814,-2.1828,-2.1829,-2.1836,-2.1842,-2.1841,-2.1843,-2.1844,-2.1837,-2.1837,-2.1837,-2.1837,0,0,-2.1535,-2.1581,-2.1585,-2.16,-2.1635,-2.1652,-2.167,-2.1697,-2.1708,-2.1731,-2.1746,-2.1776,-2.1783,-2.1799,-2.1814,-2.1823,-2.1826,-2.1829,-2.183,-2.1827,-2.1842,-2.1836,-2.1836,-2.1834,-2.1834,-2.1834,-2.1839,0,-2.1541,-2.1577,-2.1598,-2.1625,-2.1644,-2.1665,-2.1681,-2.1703,-2.172,-2.1738,-2.1756,-2.1777,-2.1784,-2.1794,-2.1804,-2.1823,-2.1829,-2.1823,-2.1847,-2.1848,-2.184,-2.1838,-2.1832,-2.1836,-2.184,-2.184,-2.1841,0,-2.1553,-2.1576,-2.1605,-2.1636,-2.1645,-2.1659,-2.1685,-2.1702,-2.1727,-2.1738,-2.1756,-2.1771,-2.179,-2.1793,-2.1819,-2.1815,-2.1826,-2.1836,-2.1837,-2.184,-2.1844,-2.1841,-2.1838,-2.1838,-2.1842,-2.1842,-2.1842,0,-2.1542,-2.158,-2.1602,-2.1614,-2.1651,-2.166,-2.1676,-2.1701,-2.1715,-2.1737,-2.1746,-2.1769,-2.1781,-2.1798,-2.1819,-2.182,-2.1842,-2.1848,-2.1851,-2.1851,-2.1856,-2.1855,-2.1854,-2.1862,-2.1862,-2.1862,-2.1862,0,-2.1547,-2.1563,-2.1597,-2.161,-2.1629,-2.1653,-2.167,-2.1687,-2.1709,-2.1724,-2.1743,-2.1757,-2.1783,-2.18,-2.1816,-2.1835,-2.184,-2.1849,-2.1853,-2.1848,-2.1847,-2.1855,-2.1856,-2.1863,-2.1863,-2.1863,-2.1863,0,-2.1537,-2.1561,-2.1586,-2.1619,-2.1627,-2.1639,-2.1667,-2.1679,-2.1697,-2.1717,-2.1723,-2.175,-2.1771,-2.1793,-2.1821,-2.1832,-2.1849,-2.1855,-2.1841,-2.1843,-2.1845,-2.1845,-2.185,-2.1852,-2.1859,-2.1859,-2.1859,0,-2.1539,-2.1552,-2.1586,-2.1598,-2.1614,-2.1633,-2.1648,-2.1671,-2.1685,-2.1714,-2.1723,-2.1745,-2.1765,-2.1797,-2.1818,-2.184,-2.1846,-2.1846,-2.1849,-2.1843,-2.1845,-2.1844,-2.1845,-2.1845,-2.1845,-2.1845,-2.1845,0,-2.1539,-2.155,-2.157,-2.1595,-2.1611,-2.1632,-2.1652,-2.1661,-2.1688,-2.1703,-2.1725,-2.1739,-2.1768,-2.179,-2.1814,-2.1828,-2.1841,-2.1844,-2.1845,-2.184,-2.1831,-2.1836,-2.1838,-2.1843,-2.1844,-2.1844,-2.1844,-2.1844,-2.1535,-2.1547,-2.1573,-2.1595,-2.1613,-2.1631,-2.1645,-2.1664,-2.1683,-2.1709,-2.1721,-2.1743,-2.1765,-2.1799,-2.1813,-2.1829,-2.1833,-2.1836,-2.1837,-2.1837,-2.1835,-2.1829,-2.1834,-2.1834,-2.1834,-2.1834,-2.1834,0,-2.1536,-2.1553,-2.1573,-2.1601,-2.1618,-2.1629,-2.1652,-2.1665,-2.1684,-2.1704,-2.1723,-2.1747,-2.1768,-2.1791,-2.1813,-2.1821,-2.1827,-2.1826,-2.1826,-2.1829,-2.1831,-2.1827,-2.1821,-2.1821,-2.1821,-2.1821,-2.1821,-2.1821,-2.1538,-2.1559,-2.1572,-2.1602,-2.1619,-2.1641,-2.1653,-2.1669,-2.1686,-2.1713,-2.173,-2.1745,-2.1766,-2.1789,-2.1808,-2.1814,-2.1821,-2.1818,-2.1826,-2.1828,-2.1829,-2.183,-2.1826,-2.182,-2.182,-2.1822,-2.1822,-2.1822]}]]